[Date Prev][Date Next][Thread Prev][Thread Next] - [Date Index][Thread Index][Author Index]
MIR Keps 2-3
- Subject: [sarex] MIR Keps 2-3
- From: "Dr Dave Larsen [ PhD ]" <doc@xxxxxxxxxxx>
- Date: Wed, 3 Feb 1999 05:38:17 -0800
These keps will update yesterdays by 1 min.
MIR
1 16609U 86017A 99034.19489937 .00035834 00000-0 28814-3 0 1822
2 16609 51.6632 310.1862 0014890 88.6932 271.6423 15.70455974740324
----
Via the sarex mailing list at AMSAT.ORG courtesy of AMSAT-NA.
To unsubscribe, send "unsubscribe sarex" to Majordomo@amsat.org
AMSAT Home